| time (UTC) | temp C | wind direction | speed KPH | gust KPH | rain 1hr cm | rain 24hr cm | rain mn cm | humidity % | barometer mb |
| 20260901145009 | 23 | 315 | 8.0 | 17.7 | 0.00 | 0.00 | 0.00 | 57 | 1018.6 |
| 20260901144009 | 23 | 270 | 14.5 | 19.3 | 0.00 | 0.00 | 0.00 | 56 | 1018.5 |
| 20260901143009 | 22 | 135 | 6.4 | 16.1 | 0.00 | 0.00 | 0.00 | 55 | 1018.6 |
| 20260901142006 | 22 | 135 | 8.0 | 14.5 | 0.00 | 0.00 | 0.00 | 56 | 1018.5 |
| 20260901141008 | 22 | 270 | 12.9 | 19.3 | 0.00 | 0.00 | 0.00 | 56 | 1018.6 |
| 20260901140012 | 23 | 270 | 14.5 | 20.9 | 0.00 | 0.00 | 0.00 | 56 | 1018.7 |
| 20260901135006 | 22 | 135 | 8.0 | 17.7 | 0.00 | 0.00 | 0.00 | 56 | 1018.6 |
| 20260901134009 | 23 | 270 | 16.1 | 20.9 | 0.00 | 0.00 | 0.00 | 58 | 1018.5 |
| 20260901132007 | 22 | 270 | 12.9 | 17.7 | 0.00 | 0.00 | 0.00 | 60 | 1018.8 |
| 20260901131013 | 23 | 225 | 16.1 | 20.9 | 0.00 | 0.00 | 0.00 | 62 | 1018.7 |
| 20260901130013 | 22 | 135 | 12.9 | 17.7 | 0.00 | 0.03 | 0.00 | 58 | 1019.0 |
| 20260901125007 | 21 | 135 | 11.3 | 17.7 | 0.00 | 0.03 | 0.00 | 60 | 1019.0 |
| 20260901124008 | 22 | 135 | 14.5 | 20.9 | 0.00 | 0.03 | 0.00 | 62 | 1019.0 |
| 20260901123038 | 22 | 270 | 12.9 | 17.7 | 0.00 | 0.03 | 0.00 | 63 | 1018.9 |
| 20260901122008 | 21 | 135 | 11.3 | 16.1 | 0.00 | 0.03 | 0.00 | 65 | 1019.0 |
| 20260901121009 | 22 | 135 | 17.7 | 22.5 | 0.00 | 0.03 | 0.00 | 62 | 1019.1 |
| 20260901120025 | 21 | 270 | 17.7 | 20.9 | 0.00 | 0.03 | 0.00 | 66 | 1019.2 |
| 20260901115006 | 21 | 270 | 16.1 | 19.3 | 0.00 | 0.03 | 0.00 | 68 | 1019.2 |
| 20260901114006 | 20 | 270 | 12.9 | 19.3 | 0.00 | 0.03 | 0.00 | 67 | 1019.3 |
| 20260901113007 | 21 | 135 | 12.9 | 19.3 | 0.00 | 0.03 | 0.00 | 67 | 1019.2 |
| 20260901111009 | 20 | 270 | 9.7 | 17.7 | 0.00 | 0.03 | 0.00 | 67 | 1019.3 |
| 20260901110011 | 21 | 270 | 11.3 | 17.7 | 0.00 | 0.03 | 0.00 | 65 | 1019.1 |
| 20260901105007 | 20 | 270 | 11.3 | 17.7 | 0.00 | 0.03 | 0.00 | 66 | 1019.2 |
| 20260901104009 | 21 | 45 | 12.9 | 19.3 | 0.00 | 0.03 | 0.00 | 66 | 1018.9 |
| 20260901103016 | 21 | 135 | 12.9 | 17.7 | 0.00 | 0.03 | 0.00 | 65 | 1018.9 |
| 20260901102011 | 20 | 270 | 12.9 | 16.1 | 0.00 | 0.03 | 0.00 | 68 | 1019.0 |
| 20260901100023 | 20 | 135 | 11.3 | 17.7 | 0.00 | 0.03 | 0.00 | 66 | 1019.1 |
| 20260901095009 | 20 | 270 | 12.9 | 17.7 | 0.00 | 0.03 | 0.00 | 69 | 1019.0 |
| 20260901093012 | 19 | 270 | 12.9 | 16.1 | 0.00 | 0.03 | 0.00 | 72 | 1019.1 |
| 20260901092009 | 19 | 135 | 9.7 | 14.5 | 0.00 | 0.03 | 0.00 | 72 | 1019.0 |
| 20260901091010 | 19 | 270 | 8.0 | 16.1 | 0.00 | 0.03 | 0.00 | 72 | 1018.8 |
| 20260901085008 | 19 | 135 | 11.3 | 17.7 | 0.00 | 0.03 | 0.00 | 74 | 1018.7 |
| 20260901084007 | 19 | 135 | 11.3 | 17.7 | 0.00 | 0.05 | 0.00 | 73 | 1018.9 |
| 20260901083009 | 18 | 135 | 11.3 | 14.5 | 0.00 | 0.05 | 0.00 | 74 | 1018.6 |
| 20260901082007 | 18 | 135 | 12.9 | 22.5 | 0.00 | 0.10 | 0.00 | 72 | 1018.7 |
| 20260901081009 | 18 | 270 | 14.5 | 19.3 | 0.00 | 0.15 | 0.00 | 71 | 1018.6 |
| 20260901080013 | 18 | 135 | 12.9 | 17.7 | 0.00 | 0.36 | 0.00 | 71 | 1018.7 |
| 20260901075008 | 19 | 270 | 14.5 | 19.3 | 0.00 | 0.36 | 0.00 | 73 | 1018.4 |
| 20260901074008 | 19 | 270 | 14.5 | 20.9 | 0.00 | 0.36 | 0.00 | 74 | 1018.4 |
| 20260901073010 | 18 | 270 | 16.1 | 27.4 | 0.00 | 0.36 | 0.00 | 77 | 1018.3 |
| 20260901072008 | 18 | 270 | 12.9 | 17.7 | 0.00 | 0.36 | 0.00 | 79 | 1018.4 |
| 20260901071007 | 17 | 270 | 14.5 | 19.3 | 0.00 | 0.36 | 0.00 | 78 | 1018.5 |
| 20260901065008 | 17 | 270 | 12.9 | 17.7 | 0.00 | 0.36 | 0.00 | 84 | 1018.4 |
| 20260901064012 | 17 | 135 | 9.7 | 16.1 | 0.00 | 0.36 | 0.00 | 85 | 1018.3 |
| 20260901063010 | 16 | 270 | 8.0 | 12.9 | 0.00 | 0.36 | 0.00 | 86 | 1018.3 |
| 20260901062012 | 16 | 270 | 8.0 | 14.5 | 0.00 | 0.36 | 0.00 | 88 | 1018.4 |
| 20260901061009 | 16 | 270 | 6.4 | 9.7 | 0.00 | 0.36 | 0.00 | 90 | 1018.4 |
| 20260901060018 | 15 | 270 | 6.4 | 11.3 | 0.00 | 0.36 | 0.00 | 92 | 1018.4 |
| 20260901055014 | 15 | 135 | 4.8 | 6.4 | 0.00 | 0.36 | 0.00 | 93 | 1018.4 |
| 20260901054010 | 14 | 135 | 4.8 | 6.4 | 0.00 | 0.36 | 0.00 | 95 | 1018.3 |
| 20260901053012 | 13 | 270 | 3.2 | 6.4 | 0.00 | 0.36 | 0.00 | 96 | 1018.4 |
| 20260901052011 | 13 | 270 | 3.2 | 6.4 | 0.00 | 0.36 | 0.00 | 95 | 1018.3 |
| 20260901051008 | 12 | 135 | 1.6 | 3.2 | 0.00 | 0.36 | 0.00 | 95 | 1018.3 |
| 20260901045009 | 11 | 135 | 1.6 | 3.2 | 0.00 | 0.36 | 0.00 | 96 | 1018.3 |
| 20260901044010 | 11 | 135 | 3.2 | 6.4 | 0.00 | 0.36 | 0.00 | 95 | 1018.0 |
| 20260901042008 | 11 | 135 | 4.8 | 6.4 | 0.00 | 0.36 | 0.00 | 96 | 1017.9 |
| 20260901041009 | 11 | 135 | 3.2 | 6.4 | 0.00 | 0.36 | 0.00 | 96 | 1018.0 |
| 20260901040012 | 11 | 135 | 3.2 | 6.4 | 0.00 | 0.36 | 0.00 | 96 | 1018.0 |
| 20260901035006 | 11 | 135 | 3.2 | 4.8 | 0.00 | 0.36 | 0.00 | 95 | 1017.9 |
| 20260901034008 | 11 | 135 | 3.2 | 4.8 | 0.00 | 0.36 | 0.00 | 94 | 1017.6 |
| 20260901033010 | 12 | 135 | 1.6 | 3.2 | 0.00 | 0.36 | 0.00 | 93 | 1017.5 |
| 20260901032006 | 12 | 0 | 1.6 | 3.2 | 0.00 | 0.36 | 0.00 | 93 | 1017.5 |
| 20260901030011 | 12 | 135 | 3.2 | 6.4 | 0.00 | 0.36 | 0.00 | 95 | 1017.4 |
| 20260901025008 | 11 | 135 | 3.2 | 6.4 | 0.00 | 0.36 | 0.00 | 96 | 1017.2 |
| 20260901023010 | 11 | 270 | 0.0 | 3.2 | 0.00 | 0.36 | 0.00 | 97 | 1017.2 |
| 20260901022006 | 11 | 90 | 0.0 | 0.0 | 0.00 | 0.36 | 0.00 | 97 | 1017.3 |
| 20260901021007 | 11 | 135 | 0.0 | 1.6 | 0.00 | 0.36 | 0.00 | 97 | 1017.1 |
| 20260901020009 | 11 | 90 | 0.0 | 3.2 | 0.00 | 0.36 | 0.00 | 97 | 1017.0 |
| 20260901013014 | 11 | 90 | 0.0 | 1.6 | 0.00 | 0.36 | 0.00 | 97 | 1017.0 |
| 20260901012009 | 11 | 90 | 0.0 | 1.6 | 0.00 | 0.36 | 0.00 | 97 | 1017.0 |
| 20260901011009 | 11 | 90 | 0.0 | 1.6 | 0.00 | 0.36 | 0.00 | 97 | 1016.9 |
| 20260901010021 | 11 | 90 | 1.6 | 3.2 | 0.00 | 0.36 | 0.00 | 97 | 1017.0 |
| 20260901005010 | 11 | 225 | 0.0 | 0.0 | 0.00 | 0.36 | 0.00 | 97 | 1016.9 |
| 20260901004008 | 11 | 45 | 0.0 | 3.2 | 0.00 | 0.36 | 0.00 | 96 | 1016.9 |
| 20260901003007 | 11 | 90 | 0.0 | 1.6 | 0.00 | 0.36 | 0.00 | 96 | 1016.8 |
| 20260901002010 | 11 | 90 | 0.0 | 3.2 | 0.00 | 0.36 | 0.00 | 96 | 1016.7 |
| 20260901001005 | 12 | 0 | 0.0 | 0.0 | 0.00 | 0.36 | 0.00 | 96 | 1016.6 |
| 20260901000014 | 12 | 0 | 0.0 | 0.0 | 0.00 | 0.36 | 0.00 | 96 | 1016.6 |
| 20260831235006 | 12 | 0 | 0.0 | 3.2 | 0.00 | 0.36 | 0.00 | 96 | 1016.5 |
| 20260831234009 | 12 | 45 | 0.0 | 1.6 | 0.00 | 0.36 | 0.00 | 96 | 1016.5 |
| 20260831233010 | 12 | 0 | 0.0 | 4.8 | 0.00 | 0.36 | 0.00 | 96 | 1016.6 |
| 20260831231009 | 12 | 0 | 0.0 | 3.2 | 0.00 | 0.36 | 0.00 | 96 | 1016.4 |
| 20260831230019 | 12 | 270 | 0.0 | 1.6 | 0.00 | 0.36 | 0.00 | 96 | 1016.5 |
| 20260831225005 | 12 | 0 | 0.0 | 3.2 | 0.00 | 0.36 | 0.00 | 96 | 1016.4 |
| 20260831224008 | 12 | 45 | 0.0 | 3.2 | 0.00 | 0.36 | 0.00 | 96 | 1016.5 |
| 20260831223007 | 12 | 45 | 0.0 | 1.6 | 0.00 | 0.36 | 0.00 | 95 | 1016.6 |
| 20260831222006 | 13 | 90 | 0.0 | 1.6 | 0.00 | 0.36 | 0.00 | 95 | 1016.5 |
| 20260831221007 | 13 | 135 | 0.0 | 1.6 | 0.00 | 0.36 | 0.00 | 96 | 1016.3 |
| 20260831220022 | 13 | 90 | 0.0 | 1.6 | 0.00 | 0.36 | 0.00 | 96 | 1016.3 |
| 20260831215005 | 13 | 0 | 1.6 | 3.2 | 0.00 | 0.36 | 0.36 | 95 | 1016.3 |
| 20260831213010 | 13 | 45 | 0.0 | 1.6 | 0.00 | 0.36 | 0.36 | 95 | 1016.3 |
| 20260831212006 | 13 | 270 | 0.0 | 3.2 | 0.00 | 0.36 | 0.36 | 95 | 1015.9 |
| 20260831210012 | 13 | 90 | 0.0 | 3.2 | 0.00 | 0.36 | 0.36 | 95 | 1015.8 |
| 20260831205005 | 13 | 135 | 0.0 | 1.6 | 0.00 | 0.36 | 0.36 | 95 | 1015.5 |
| 20260831204007 | 13 | 0 | 0.0 | 1.6 | 0.00 | 0.36 | 0.36 | 95 | 1015.3 |
| 20260831203007 | 13 | 0 | 0.0 | 3.2 | 0.00 | 0.36 | 0.36 | 94 | 1015.1 |
| 20260831202006 | 13 | 90 | 0.0 | 1.6 | 0.00 | 0.36 | 0.36 | 94 | 1015.1 |
| 20260831200011 | 14 | 90 | 0.0 | 1.6 | 0.00 | 0.36 | 0.36 | 94 | 1014.9 |
| 20260831194008 | 15 | 0 | 1.6 | 3.2 | 0.00 | 0.36 | 0.36 | 93 | 1014.7 |
| 20260831193007 | 15 | 0 | 1.6 | 3.2 | 0.00 | 0.36 | 0.36 | 93 | 1015.1 |
| 20260831192009 | 15 | 90 | 0.0 | 1.6 | 0.00 | 0.36 | 0.36 | 93 | 1015.2 |
| 20260831185008 | 15 | 135 | 0.0 | 1.6 | 0.00 | 0.36 | 0.36 | 91 | 1014.5 |
| 20260831183010 | 16 | 135 | 0.0 | 1.6 | 0.00 | 0.36 | 0.36 | 89 | 1014.1 |
| 20260831182006 | 16 | 0 | 0.0 | 0.0 | 0.00 | 0.36 | 0.36 | 89 | 1014.3 |
| 20260831181011 | 17 | 0 | 0.0 | 1.6 | 0.00 | 0.36 | 0.36 | 86 | 1014.1 |
| 20260831175008 | 18 | 0 | 0.0 | 3.2 | 0.00 | 0.36 | 0.36 | 81 | 1013.9 |
| 20260831174007 | 18 | 90 | 0.0 | 3.2 | 0.00 | 0.36 | 0.36 | 79 | 1013.7 |
| 20260831173018 | 19 | 225 | 0.0 | 0.0 | 0.00 | 0.36 | 0.36 | 78 | 1013.5 |
| 20260831171009 | 20 | 270 | 1.6 | 3.2 | 0.00 | 0.36 | 0.36 | 73 | 1013.5 |
| 20260831170011 | 21 | 270 | 4.8 | 6.4 | 0.00 | 0.36 | 0.36 | 72 | 1013.3 |
| 20260831165006 | 21 | 270 | 6.4 | 9.7 | 0.00 | 0.36 | 0.36 | 70 | 1013.3 |
| 20260831163008 | 22 | 270 | 6.4 | 12.9 | 0.00 | 0.36 | 0.36 | 67 | 1013.4 |
| 20260831162008 | 22 | 270 | 8.0 | 14.5 | 0.00 | 0.36 | 0.36 | 62 | 1013.3 |
| 20260831161007 | 23 | 270 | 9.7 | 16.1 | 0.00 | 0.36 | 0.36 | 61 | 1013.3 |
| 20260831160034 | 23 | 270 | 11.3 | 17.7 | 0.00 | 0.36 | 0.36 | 60 | 1013.4 |
| 20260831153008 | 24 | 135 | 9.7 | 14.5 | 0.00 | 0.36 | 0.36 | 62 | 1013.5 |
| 20260831152009 | 24 | 135 | 14.5 | 19.3 | 0.00 | 0.36 | 0.36 | 62 | 1013.5 |
| 20260831151006 | 24 | 180 | 12.9 | 19.3 | 0.00 | 0.36 | 0.36 | 64 | 1013.5 |
| 20260831150025 | 23 | 270 | 9.7 | 16.1 | 0.00 | 0.36 | 0.36 | 65 | 1013.6 |